Weather History for LLBG - January, 2014

Change the Weather History Date:

Thursday, January 16, 2014

  Actual Average Record
Temperature  
Mean Temperature 61 °F -  
Max Temperature 73 °F 62 °F 73 °F (2009)
Min Temperature 49 °F 48 °F 35 °F (2008)
Degree Days  
Heating Degree Days 4    
Growing Degree Days 11 (Base 50)    
Moisture  
Dew Point 43 °F    
Average Humidity 47    
Maximum Humidity 82    
Minimum Humidity 22    
Precipitation  
Precipitation 0.00 in - - ()
Sea Level Pressure  
Sea Level Pressure 30.04 in    
Wind  
Wind Speed 5 mph ()    
Max Wind Speed 16 mph    
Max Gust Speed -    
Visibility 6.0 miles    
Events      
Averages and records for this station are not official NWS values.
T = Trace of Precipitation, MM = Missing Value Source: Averaged Metar Reports

Daily Weather History Graph

Daily Weather History Graph

Search for Another Location

Airport or City:

Trip Planner

Search our weather history database for the weather conditions in past years. The results will help you decide how hot, cold, wet, or windy it might be!

Date:

Astronomy

Jan. 16, 2014 Rise Set
Actual Time 6:41 AM IST 4:59 PM IST
Civil Twilight 6:14 AM IST 5:25 PM IST
Nautical Twilight 5:44 AM IST 5:55 PM IST
Astronomical Twilight 5:15 AM IST 6:25 PM IST
Moon 5:27 PM IST (1/16) 6:26 AM IST (1/16)
Length of Visible Light 11h 11m
Length of Day
10h 18m
Full, 100% of the Moon is Illuminated
Jan 16
Full
Jan 24
Last Quarter
Jan 30
New
Feb 6
First Quarter
Feb 15
Full

Hourly Weather History & Observations

Time (IST) Temp. Dew Point Humidity Pressure Visibility Wind Dir Wind Speed Gust Speed Precip Events Conditions
12:20 AM 51.8 °F 44.6 °F 76% 30.09 in - Variable 1.2 mph - N/A   Clear
12:50 AM 50.0 °F 44.6 °F 82% 30.09 in - Variable 3.5 mph - N/A   Clear
1:20 AM 50.0 °F 42.8 °F 76% 30.06 in - WNW 4.6 mph - N/A   Clear
1:50 AM 50.0 °F 44.6 °F 82% 30.06 in - Variable 2.3 mph - N/A   Clear
2:00 AM 50 °F 44 °F 73% 30.09 in 6 mi 2.3 mph - -  
2:20 AM 53.6 °F 42.8 °F 67% 30.06 in - Variable 1.2 mph - N/A   Clear
2:50 AM 60.8 °F 41.0 °F 48% 30.06 in - ESE 6.9 mph - N/A   Clear
3:20 AM 57.2 °F 41.0 °F 55% 30.06 in - Variable 3.5 mph - N/A   Clear
3:50 AM 60.8 °F 41.0 °F 48% 30.06 in - Variable 3.5 mph - N/A   Clear
4:20 AM 62.6 °F 39.2 °F 42% 30.06 in - Variable 3.5 mph - N/A   Clear
4:50 AM 62.6 °F 39.2 °F 42% 30.06 in - East 8.1 mph - N/A   Clear
5:00 AM 62 °F 40 °F 33% 30.06 in 6 mi East 8.1 mph - -  
5:20 AM 60.8 °F 39.2 °F 45% 30.06 in - Variable 3.5 mph - N/A   Clear
5:50 AM 62.6 °F 39.2 °F 42% 30.06 in - Variable 3.5 mph - N/A   Clear
6:20 AM 60.8 °F 41.0 °F 48% 30.06 in - Variable 3.5 mph - N/A   Clear
6:50 AM 60.8 °F 41.0 °F 48% 30.06 in - Variable 2.3 mph - N/A   Clear
7:20 AM 62.6 °F 41.0 °F 45% 30.06 in - ESE 8.1 mph - N/A   Clear
7:50 AM 62.6 °F 42.8 °F 48% 30.06 in - Variable 3.5 mph - N/A   Clear
8:00 AM 63 °F 42 °F 34% 30.08 in 6 mi 3.5 mph - -   Clear
8:20 AM 64.4 °F 41.0 °F 42% 30.06 in - ESE 5.8 mph - N/A   Clear
8:50 AM 66.2 °F 42.8 °F 43% 30.09 in - ESE 10.4 mph - N/A   Clear
9:20 AM 66.2 °F 42.8 °F 43% 30.09 in - ESE 5.8 mph - N/A   Clear
9:50 AM 69.8 °F 42.8 °F 38% 30.09 in - East 4.6 mph - N/A   Clear
10:20 AM 69.8 °F 42.8 °F 38% 30.09 in - ESE 12.7 mph - N/A   Clear
10:50 AM 69.8 °F 42.8 °F 38% 30.06 in - ESE 12.7 mph - N/A   Clear
11:00 AM 70 °F 42 °F 26% 30.09 in 6 mi ESE 12.7 mph - -   Clear
11:20 AM 69.8 °F 42.8 °F 38% 30.04 in - ESE 16.1 mph - N/A   Clear
11:50 AM 71.6 °F 42.8 °F 35% 30.04 in - ESE 15.0 mph - N/A   Clear
12:20 PM 71.6 °F 42.8 °F 35% 30.01 in - ESE 13.8 mph - N/A   Clear
12:50 PM 71.6 °F 42.8 °F 35% 30.01 in - ESE 16.1 mph - N/A   Clear
1:20 PM 73.4 °F 41.0 °F 31% 30.01 in - SE 13.8 mph - N/A   Clear
1:50 PM 73.4 °F 42.8 °F 33% 30.01 in - SE 15.0 mph - N/A   Clear
2:00 PM 73 °F 42 °F 22% 30.00 in 6 mi SE 15.0 mph - -  
2:20 PM 73.4 °F 42.8 °F 33% 30.01 in - ESE 13.8 mph - N/A   Clear
2:50 PM 73.4 °F 42.8 °F 33% 30.01 in - ESE 16.1 mph - N/A   Clear
3:20 PM 73.4 °F 42.8 °F 33% 30.01 in - SE 12.7 mph - N/A   Clear
3:50 PM 73.4 °F 44.6 °F 36% 30.01 in - SE 10.4 mph - N/A   Clear
4:20 PM 71.6 °F 44.6 °F 38% 30.01 in - SSE 6.9 mph - N/A   Clear
4:50 PM 69.8 °F 44.6 °F 40% 30.01 in - ESE 11.5 mph - N/A   Clear
5:00 PM 70 °F 44 °F 28% 30.01 in 6 mi ESE 11.5 mph - -   Scattered Clouds
5:20 PM 69.8 °F 44.6 °F 40% 30.01 in - SE 11.5 mph - N/A   Clear
5:50 PM 68.0 °F 44.6 °F 43% 30.01 in - SSE 5.8 mph - N/A   Clear
6:20 PM 68.0 °F 44.6 °F 43% 30.01 in - ESE 8.1 mph - N/A   Clear
6:50 PM 64.4 °F 44.6 °F 49% 29.98 in - Variable 2.3 mph - N/A   Clear
7:20 PM 64.4 °F 44.6 °F 49% 30.01 in 6.2 mi Variable 2.3 mph - N/A   Partly Cloudy
7:50 PM 62.6 °F 44.6 °F 52% 30.01 in - Variable 2.3 mph - N/A   Clear
8:00 PM 63 °F 44 °F 39% 30.01 in 6 mi 2.3 mph - -   Partly Cloudy
8:20 PM 62.6 °F 44.6 °F 52% 30.01 in - Variable 1.2 mph - N/A   Clear
8:50 PM 60.8 °F 44.6 °F 55% 30.01 in - Variable 1.2 mph - N/A   Clear
9:20 PM 59.0 °F 44.6 °F 59% 30.01 in - Variable 2.3 mph - N/A   Clear
9:50 PM 57.2 °F 42.8 °F 59% 30.01 in - Variable 2.3 mph - N/A   Clear
10:20 PM 55.4 °F 44.6 °F 67% 30.01 in - Variable 3.5 mph - N/A   Clear
10:50 PM 53.6 °F 42.8 °F 67% 30.01 in - East 4.6 mph - N/A   Clear
11:00 PM 54 °F 44 °F 58% 30.01 in 6 mi East 4.6 mph - -   Partly Cloudy
11:20 PM 53.6 °F 42.8 °F 67% 30.01 in - Variable 1.2 mph - N/A   Clear
11:50 PM 53.6 °F 44.6 °F 72% 30.01 in - Variable 1.2 mph - N/A   Clear